EW5026 Weather Reports


Display with metric or nautical units.
time (UTC)temp
F
wind
direction
speed
MPH
gust
MPH
rain 1hr
in
rain 24hr
in
rain mn
in
humidity
%
barometer
mb
20260504190001 80 200 16.0 27.0 0.00 0.00 0.00 35 999.2
20260504185600 80 209 18.0 27.0 0.00 0.00 0.00 40 999.3
20260504185059 80 203 17.0 30.0 0.00 0.00 0.00 41 999.2
20260504184626 80 228 18.0 30.0 0.00 0.00 0.00 41 999.3
20260504184059 80 217 17.0 26.0 0.00 0.00 0.00 43 999.3
20260504183558 80 180 19.0 30.0 0.00 0.00 0.00 41 999.2
20260504183058 80 209 17.0 30.0 0.00 0.00 0.00 42 999.4
20260504182557 79 215 20.0 25.0 0.00 0.00 0.00 42 999.3
20260504182056 79 219 16.0 22.0 0.00 0.00 0.00 42 999.5
20260504181558 79 228 17.0 22.0 0.00 0.00 0.00 42 999.5
20260504181056 80 211 13.0 25.0 0.00 0.00 0.00 41 999.5
20260504180557 80 239 14.0 29.0 0.00 0.00 0.00 43 999.5
20260504180055 79 218 16.0 29.0 0.00 0.00 0.00 41 999.5
20260504175553 79 229 18.0 26.0 0.00 0.00 0.00 42 999.6
20260504175054 79 263 14.0 24.0 0.00 0.00 0.00 42 999.6
20260504174553 79 236 14.0 24.0 0.00 0.00 0.00 41 999.6
20260504174051 79 210 13.0 22.0 0.00 0.00 0.00 43 999.6
20260504173551 79 233 15.0 24.0 0.00 0.00 0.00 42 999.7
20260504173050 78 220 16.0 24.0 0.00 0.00 0.00 44 999.9
20260504172548 78 219 9.0 19.0 0.00 0.00 0.00 46 1000.0
20260504172048 78 225 14.0 22.0 0.00 0.00 0.00 42 1000.2
20260504171547 77 240 15.0 22.0 0.00 0.00 0.00 44 1000.2
20260504171046 77 229 14.0 24.0 0.00 0.00 0.00 48 1000.1
20260504170545 77 233 15.0 24.0 0.00 0.00 0.00 46 1000.3
20260504151024 71 198 13.0 21.0 0.00 0.00 0.00 58 1001.8
20260504150523 71 192 14.0 22.0 0.00 0.00 0.00 59 1002.0
20260504141011 67 215 12.0 18.0 0.00 0.00 0.00 61 1002.7
20260504140510 67 208 11.0 17.0 0.00 0.00 0.00 62 1002.7
20260504130554 60 184 3.0 7.0 0.00 0.00 0.00 78 1003.6
20260504110533 48 175 4.0 7.0 0.00 0.00 0.00 87 1003.9
20260504100529 49 184 5.0 9.0 0.00 0.00 0.00 86 1004.2
20260504081532 46 157 4.0 5.0 0.00 0.00 0.00 88 1004.3
20260504081021 46 157 3.0 4.0 0.00 0.00 0.00 88 1004.2
20260504080521 46 157 2.0 4.0 0.00 0.00 0.00 88 1004.2
20260504060106 49 171 2.0 6.0 0.00 0.00 0.00 81 1005.5
20260504050553 50 157 4.0 6.0 0.00 0.00 0.00 81 1005.6
20260504045553 50 161 4.0 5.0 0.00 0.00 0.00 81 1005.6
20260504045054 50 161 4.0 5.0 0.00 0.00 0.00 80 1005.7
20260504044552 51 161 4.0 5.0 0.00 0.00 0.00 80 1005.8
20260504044050 51 163 4.0 5.0 0.00 0.00 0.00 80 1005.8
20260504043550 51 165 4.0 5.0 0.00 0.00 0.00 79 1005.8
20260504043050 51 158 4.0 5.0 0.00 0.00 0.00 79 1005.9
20260504042549 51 160 4.0 6.0 0.00 0.00 0.00 79 1005.9
20260504042048 51 163 5.0 7.0 0.00 0.00 0.00 79 1005.8
20260504041549 51 171 5.0 7.0 0.00 0.00 0.00 79 1005.9
20260504041048 51 165 5.0 7.0 0.00 0.00 0.00 79 1005.9
20260504040551 51 171 5.0 7.0 0.00 0.00 0.00 79 1005.9
20260504040048 51 170 5.0 6.0 0.00 0.00 0.00 79 1006.0
20260504035548 51 165 4.0 6.0 0.00 0.00 0.00 79 1006.1
20260504035047 51 165 4.0 6.0 0.00 0.00 0.00 78 1006.2
20260504034546 51 171 4.0 6.0 0.00 0.00 0.00 77 1006.2
20260504034050 52 168 4.0 6.0 0.00 0.00 0.00 77 1006.2
20260504033547 52 172 5.0 7.0 0.00 0.00 0.00 77 1006.2
20260504033053 52 183 5.0 7.0 0.00 0.00 0.00 77 1006.3
20260504032546 52 173 5.0 7.0 0.00 0.00 0.00 76 1006.3
20260504032046 52 178 5.0 7.0 0.00 0.00 0.00 77 1006.3
20260504031555 52 174 4.0 7.0 0.00 0.00 0.00 77 1006.3
20260504031050 52 169 4.0 6.0 0.00 0.00 0.00 76 1006.3
20260504030545 52 169 4.0 6.0 0.00 0.00 0.00 76 1006.3
20260504030049 52 169 4.0 6.0 0.00 0.00 0.00 76 1006.4
20260504025545 52 176 4.0 5.0 0.00 0.00 0.00 75 1006.5
20260504025046 53 171 3.0 5.0 0.00 0.00 0.00 75 1006.5
20260504024556 53 171 3.0 5.0 0.00 0.00 0.00 74 1006.4
20260504024045 53 171 4.0 5.0 0.00 0.00 0.00 74 1006.5
20260504023549 53 178 3.0 5.0 0.00 0.00 0.00 74 1006.5
20260504023046 53 167 3.0 5.0 0.00 0.00 0.00 74 1006.5
20260504022546 53 167 3.0 5.0 0.00 0.00 0.00 74 1006.5
20260504022044 53 167 3.0 5.0 0.00 0.00 0.00 74 1006.4
20260504021551 54 167 4.0 5.0 0.00 0.00 0.00 73 1006.4
20260504021047 54 163 3.0 4.0 0.00 0.00 0.00 73 1006.4
20260504020544 55 161 3.0 5.0 0.00 0.00 0.00 71 1006.3
20260504020048 55 167 3.0 5.0 0.00 0.00 0.00 70 1006.3
20260504015543 56 159 2.0 5.0 0.00 0.00 0.00 68 1006.3
20260504015145 57 159 3.0 6.0 0.00 0.00 0.00 66 1006.2
20260504014544 58 182 4.0 6.0 0.00 0.00 0.00 65 1006.2
20260504014043 58 198 4.0 6.0 0.00 0.00 0.00 64 1006.2
20260504013543 58 193 4.0 6.0 0.00 0.00 0.00 64 1006.1
20260504013048 59 188 5.0 6.0 0.00 0.00 0.00 63 1006.1
20260504012546 59 191 5.0 7.0 0.00 0.00 0.00 62 1006.1
20260504012044 59 192 4.0 7.0 0.00 0.00 0.00 61 1006.0
20260504011543 60 200 5.0 6.0 0.00 0.00 0.00 60 1006.0
20260504011041 61 194 4.0 8.0 0.00 0.00 0.00 58 1006.0
20260504010541 62 203 4.0 9.0 0.00 0.00 0.00 56 1006.1
20260504010042 63 212 6.0 11.0 0.00 0.00 0.00 54 1006.1
20260504005541 63 205 6.0 12.0 0.00 0.00 0.00 53 1006.1
20260504005042 64 219 7.0 12.0 0.00 0.00 0.00 53 1006.0
20260504004551 64 209 7.0 12.0 0.00 0.00 0.00 51 1006.0
20260504004041 65 225 7.0 13.0 0.00 0.00 0.00 51 1006.1
20260504003541 65 210 10.0 15.0 0.00 0.00 0.00 49 1006.1
20260504003038 65 212 9.0 15.0 0.00 0.00 0.00 50 1006.1
20260504002538 66 228 9.0 16.0 0.00 0.00 0.00 49 1006.2
20260504002042 66 257 11.0 16.0 0.00 0.00 0.00 48 1006.2
20260504001540 66 207 9.0 16.0 0.00 0.00 0.00 47 1006.2
20260504001038 66 223 9.0 17.0 0.00 0.00 0.00 47 1006.2
20260504000537 67 236 9.0 14.0 0.00 0.00 0.00 48 1006.2
20260504000037 67 234 9.0 17.0 0.00 0.00 0.00 46 1006.2
20260503235537 67 225 9.0 17.0 0.00 0.00 0.00 46 1006.2
20260503235041 67 226 9.0 14.0 0.00 0.00 0.00 48 1006.2
20260503234538 67 242 9.0 14.0 0.00 0.00 0.00 47 1006.2
20260503234037 68 225 8.0 17.0 0.00 0.00 0.00 47 1006.2
20260503233537 67 238 10.0 17.0 0.00 0.00 0.00 46 1006.2
20260503233036 67 206 9.0 21.0 0.00 0.00 0.00 46 1006.3
20260503232536 68 263 13.0 22.0 0.00 0.00 0.00 45 1006.3
20260503232035 68 227 12.0 24.0 0.00 0.00 0.00 46 1006.4
20260503231534 68 229 14.0 24.0 0.00 0.00 0.00 45 1006.4
20260503231033 68 257 16.0 23.0 0.00 0.00 0.00 46 1006.5
20260503230531 67 221 13.0 20.0 0.00 0.00 0.00 46 1006.5
20260503230032 66 211 13.0 19.0 0.00 0.00 0.00 47 1006.5
20260503225531 66 195 15.0 21.0 0.00 0.00 0.00 46 1006.7
20260503225030 66 209 13.0 19.0 0.00 0.00 0.00 47 1006.7
20260503224531 67 200 13.0 21.0 0.00 0.00 0.00 46 1006.7
20260503224030 66 221 14.0 22.0 0.00 0.00 0.00 46 1006.7
20260503223531 66 202 13.0 22.0 0.00 0.00 0.00 47 1006.8
20260503223030 66 215 14.0 23.0 0.00 0.00 0.00 47 1006.8
20260503222529 66 211 15.0 24.0 0.00 0.00 0.00 47 1006.8
20260503222028 67 200 18.0 25.0 0.00 0.00 0.00 46 1006.8
20260503221528 66 208 17.0 25.0 0.00 0.00 0.00 47 1006.9
20260503221031 65 197 18.0 25.0 0.00 0.00 0.00 47 1006.9
20260503220528 65 215 17.0 25.0 0.00 0.00 0.00 47 1006.8
20260503220033 65 206 14.0 23.0 0.00 0.00 0.00 47 1007.0
20260503215527 66 197 16.0 25.0 0.00 0.00 0.00 47 1007.0
20260503215026 66 210 18.0 28.0 0.00 0.00 0.00 46 1007.0
20260503214526 66 206 17.0 28.0 0.00 0.00 0.00 46 1007.0
20260503214026 66 203 19.0 25.0 0.00 0.00 0.00 46 1007.0
20260503213526 65 169 18.0 25.0 0.00 0.00 0.00 46 1007.1
20260503213028 65 198 15.0 26.0 0.00 0.00 0.00 48 1007.1
20260503212525 65 190 15.0 26.0 0.00 0.00 0.00 48 1007.2
20260503212023 65 184 18.0 29.0 0.00 0.00 0.00 47 1007.2
20260503211534 65 198 19.0 29.0 0.00 0.00 0.00 46 1007.4
20260503211022 65 177 15.0 25.0 0.00 0.00 0.00 47 1007.6
20260503210522 65 210 14.0 27.0 0.00 0.00 0.00 46 1007.7
20260503210022 65 199 17.0 27.0 0.00 0.00 0.00 46 1007.8
20260503205529 65 192 16.0 28.0 0.00 0.00 0.00 46 1007.8
20260503205021 66 201 19.0 28.0 0.00 0.00 0.00 44 1007.9
20260503204520 67 198 21.0 28.0 0.00 0.00 0.00 43 1007.9
20260503204019 67 198 18.0 29.0 0.00 0.00 0.00 43 1008.0
20260503203519 66 157 20.0 29.0 0.00 0.00 0.00 45 1008.0
20260503203021 65 215 22.0 30.0 0.00 0.00 0.00 44 1008.1
20260503202520 67 195 18.0 30.0 0.00 0.00 0.00 44 1008.2
20260503202018 66 200 20.0 33.0 0.00 0.00 0.00 43 1008.2
20260503201516 66 199 21.0 33.0 0.00 0.00 0.00 43 1008.3
20260503201017 66 171 21.0 31.0 0.00 0.00 0.00 45 1008.4
20260503200516 66 193 20.0 31.0 0.00 0.00 0.00 44 1008.5
20260503200015 66 187 20.0 28.0 0.00 0.00 0.00 42 1008.6
20260503195517 65 198 20.0 28.0 0.00 0.00 0.00 43 1008.8
20260503195014 66 182 18.0 33.0 0.00 0.00 0.00 45 1008.7
20260503194514 64 203 22.0 33.0 0.00 0.00 0.00 44 1008.9
20260503194014 65 163 23.0 31.0 0.00 0.00 0.00 45 1008.8
20260503193513 65 196 20.0 31.0 0.00 0.00 0.00 44 1008.9
20260503193030 64 179 23.0 33.0 0.00 0.00 0.00 44 1008.9
20260503192511 64 166 19.0 33.0 0.00 0.00 0.00 45 1009.1
20260503192010 65 220 19.0 32.0 0.00 0.00 0.00 44 1009.1
20260503191512 65 213 21.0 32.0 0.00 0.00 0.00 43 1009.3
20260503191009 64 183 20.0 31.0 0.00 0.00 0.00 45 1009.2
20260503190508 63 200 22.0 31.0 0.00 0.00 0.00 45 1009.5